This is the latest recevied weather packets stored in our database for station/object KD7ECD. If no packets are shown the sender has not sent any weather packets the latest 10 day(s).
| Time | Temp. | Humidity | Pressure | Rain* | Wind** | Luminosity | Snow |
|---|---|---|---|---|---|---|---|
| 1777948087 | 13.89° C | 77% | 1016.7 hPa | 0 mm | - | 9 W/m² | - |
| 1777947486 | 13.89° C | 76% | 1016.8 hPa | 0 mm | - | 12 W/m² | - |
| 1777946884 | 13.89° C | 74% | 1016.9 hPa | 0 mm | - | 11 W/m² | - |
| 1777946283 | 14.44° C | 72% | 1016.8 hPa | 0 mm | - | 8 W/m² | - |
| 1777945683 | 15° C | 72% | 1016.9 hPa | 0 mm | - | 19 W/m² | - |
| 1777945083 | 15° C | 71% | 1016.8 hPa | 0 mm | - | 30 W/m² | - |
| 1777944478 | 15° C | 70% | 1016.8 hPa | 0 mm | - | 39 W/m² | - |
| 1777943877 | 15° C | 69% | 1017 hPa | 0 mm | - | 67 W/m² | - |
| 1777943276 | 15° C | 69% | 1017 hPa | 0 mm | - | 88 W/m² | - |
| 1777942674 | 15° C | 69% | 1017.1 hPa | 0 mm | - | 69 W/m² | - |
| 1777942075 | 15° C | 68% | 1017.1 hPa | 0 mm | - | 89 W/m² | - |
| 1777941474 | 15° C | 69% | 1017.3 hPa | 0 mm | - | 68 W/m² | - |
| 1777940873 | 15° C | 69% | 1017.1 hPa | 0 mm | - | 72 W/m² | - |
| 1777940268 | 15° C | 68% | 1017.3 hPa | 0 mm | - | 88 W/m² | - |
| 1777939668 | 15° C | 68% | 1017.2 hPa | 0 mm | - | 58 W/m² | - |
| 1777939068 | 15.56° C | 68% | 1017.1 hPa | 0 mm | - | 45 W/m² | - |
| 1777938468 | 15.56° C | 68% | 1017.5 hPa | 0 mm | - | 34 W/m² | - |
| 1777937867 | 15.56° C | 69% | 1017.2 hPa | 0 mm | - | 46 W/m² | - |
| 1777937266 | 15.56° C | 69% | 1017.5 hPa | 0 mm | - | 64 W/m² | - |
| 1777936666 | 15.56° C | 69% | 1017.2 hPa | 0 mm | - | 81 W/m² | - |
| 1777936064 | 15.56° C | 69% | 1017.3 hPa | 0 mm | - | 79 W/m² | - |
| 1777935461 | 15.56° C | 69% | 1017.4 hPa | 0 mm | - | 68 W/m² | - |
| 1777934860 | 15.56° C | 69% | 1017.3 hPa | 0 mm | - | 63 W/m² | - |
| 1777934259 | 15.56° C | 69% | 1017.3 hPa | 0 mm | - | 59 W/m² | - |
| 1777933658 | 15.56° C | 69% | 1017.3 hPa | 0 mm | - | 75 W/m² | - |
* Rain latest hour (hover to see other rain measurements)
** Current wind speed in m/s (hover to see current wind gust speed)